Flag for Pakistan Weather past 2 weeks in Lahore, Pakistan

Now
54 °F

Fog.


Feels Like: 53 °F
Forecast: 51 / 63 °F
Wind: 5 mph from East

Location: Lahore Airport

Current Time: Feb 2, 2015 at 12:01:51 AM

Latest Report: Feb 1, 2015 at 11:25 PM


Visibility: 2 mi

Pressure: 30.04 "Hg

Humidity: 82%

Dew point: 48 °F

Location of LahoreLocation

Historic Weather in Lahore — Graph

°F

Lahore temperature yesterday

Maximum temperature yesterday: 68 °F (at 2:00 PM)
Minimum temperature yesterday: 45 °F (at 6:25 AM)
Average temperature yesterday: 57 °F

Past Weeks' High & Low Weather Summary

 TemperatureHumidityPressure
High70 °F (Jan 18, 1:55 PM)100% (Jan 20, 7:55 AM)30.24 "Hg (Jan 20, 7:55 AM)
Low41 °F (Jan 27, 6:25 AM)20% (Jan 30, 3:55 PM)30.01 "Hg (Jan 28, 3:00 PM)
Average54 °F70%30.12 "Hg
* Reported Jan 17 10:25 PM — Feb 1 10:55 PM, Lahore, Weather by CustomWeather, © 2014

Note: Actual official high and low records may vary slightly from our data, if they occured in-between our weather recording intervals... More about our weather records

Advertising

Lahore weather history for previous 24 hours

 ConditionsComfort  
Time TempWeatherWind HumidityBarometerVisibility
10:55 PM
Feb 1
54 °FFog.5 mph82%30.07 "Hg2 mi
10:25 PM55 °FClear.5 mph77%30.07 "Hg2 mi
9:55 PM55 °FClear.5 mph77%30.04 "Hg2 mi
8:55 PM57 °FClear.5 mph72%30.04 "Hg2 mi
6:55 PM59 °FClear.5 mph55%30.04 "Hg2 mi
6:25 PM63 °FHaze.6 mph49%30.04 "Hg2 mi
5:55 PM64 °FHaze.5 mph46%30.01 "Hg2 mi
5:25 PM66 °FScattered clouds.6 mph40%30.01 "Hg3 mi
4:55 PM66 °FHaze.6 mph40%30.01 "Hg3 mi
3:55 PM68 °FHaze.7 mph35%30.01 "Hg3 mi
3:30 PM68 °FHaze.8 mph38%30.01 "Hg3 mi
2:55 PM68 °FHaze.6 mph38%30.01 "Hg3 mi
2:30 PM68 °FHaze.7 mph43%30.01 "Hg3 mi
2:00 PM68 °FPassing clouds.6 mph43%30.04 "Hg4 mi
1:30 PM66 °FPassing clouds.6 mph40%30.04 "Hg4 mi
1:00 PM66 °FClear.6 mph40%30.07 "Hg4 mi
12:30 PM64 °FHaze.6 mph46%30.07 "Hg4 mi
11:55 AM64 °FHaze.6 mph46%30.09 "Hg3 mi
11:25 AM63 °FHaze.6 mph49%30.09 "Hg3 mi
11:00 AM61 °FPassing clouds.6 mph52%30.09 "Hg3 mi
10:25 AM59 °FScattered clouds.6 mph55%30.09 "Hg2 mi
9:55 AM57 °FScattered clouds.6 mph59%30.09 "Hg2 mi
9:30 AM52 °FScattered clouds.6 mph72%30.09 "Hg2 mi
8:55 AM52 °FScattered clouds.3 mph72%30.09 "Hg2 mi
8:25 AM48 °FScattered clouds.3 mph71%30.09 "Hg2 mi
7:55 AM46 °FScattered clouds.No wind76%30.09 "Hg2 mi
7:25 AM45 °FFog.No wind87%30.07 "Hg1 mi
6:55 AM45 °FScattered clouds.No wind87%30.07 "Hg2 mi
6:25 AM45 °FPassing clouds.No wind87%30.07 "Hg2 mi
5:00 AM48 °FPassing clouds.3 mph82%30.04 "Hg2 mi
4:25 AM48 °FPassing clouds.6 mph82%30.04 "Hg2 mi
3:55 AM48 °FPassing clouds.5 mph82%30.04 "Hg2 mi
3:25 AM50 °FPassing clouds.3 mph76%30.04 "Hg2 mi
2:55 AM50 °FPassing clouds.3 mph76%30.04 "Hg2 mi
2:25 AM50 °FPassing clouds.9 mph76%30.01 "Hg2 mi
1:55 AM50 °FPassing clouds.7 mph76%N/A2 mi
12:55 AM54 °FClear.3 mph63%30.07 "Hg3 mi
Weather by CustomWeather, © 2014

See weather overviewHow to use our weather pages